zur Startseite

ADAC Rallye Deutschland 2017 - Ergebnisse nach WP9: Die Stimmen nach Arena Panzerplatte

Neuville konnte nach dieser Prüfung nicht weiterfahren

19.08.2017 (Speed-Magazin.de) Was die Fahrer nach der neunten Prüfung der ADAC Rallye Deutschland 2017 zu sagen hatten.



FIA WRC: Rallye Deutschland 2017
Rallye Deutschland 2017 Rallye Deutschland 2017 Rallye Deutschland 2017 Rallye Deutschland 2017 Rallye Deutschland 2017



OGIER Sébastien/INGRASSIA Julien, FRA/FRA FORD, FIESTA WRC: "Okay. Die echte [Prüfung] kommt."

PADDON Hayden/MARSHALL Sebastian, NZL/GBR, HYUNDAI i20 WRC: "Die Strecke war recht trocken. Wir erwarten etwas feuchtere Streckenteile in der nächsten Prüfung."

NEUVILLE Thierry/GILSOUL Nicolas, BEL/BEL, HYUNDAI i20 WRC: Nach Aufhängungsschaden hinten links: "Ich habe keine Ahnung [was passiert ist]." Gilsoul: "Es war nur eine kleine Rille an einer Kreuzung. Wir wissen nicht, was passiert ist. Es sieht aus wie eine Katastrophe, aber bei dieser Rallye kann noch eine Menge passieren - und drei Rallyes kommen in dieser Saison noch."

MEEKE Kris/NAGLE Paul, GBR/IRL, CITROËN C3 WRC: "Recht trocken. Eine besondere Strecke, die man besonders angehen muss."

BREEN Craig/MARTIN Scott, IRL/GBR, CITROËN C3 WRC: "Gut durchgekommen. Ich hoffe, die nächste Prüfung ist etwas feuchter."

LATVALA Jari-Matti/ANTTILA Miikka, FIN/FIN, TOYOTA YARIS WRC: "Wir haben ein paar Anpassungen am Aufschrieb gemacht. Es war überraschend trocken, und es gibt ein paar Punkte, an denen wir uns für den nächsten Durchgang verbessern können."

HÄNNINEN Juho/LINDSTRÖM Kaj, FIN/FIN, TOYOTA YARIS WRC: "Mal schauen, wie die Reifen auf der nächsten Prüfung sind. Es wird spannend. Es gibt ein paar fechte Abschnitte."

KREMER Armin/WINKLHOFER Pirmin, DEU/DEU, FORD FIESTA WRC: "Eine kurze Prüfung, aber das Gefühl war gut. Die weichen Reifen scheinen die richtige Wahl zu sein. Wir sind bereit für die nächste Prüfung."

ADAC Rallye Deutschland 2017 Gesamtergebnisse nach WP9:

Pos   #     Fahrer Zeit Abstand V.  Abstand 1. 
1. 2 ESTO. TÄNAK 1:09:08.5      
2. 9 NORA. MIKKELSEN 1:09:14.8 +6.3 +6.3
3. 1 FRAS. OGIER 1:09:39.5 +24.7 +31.0
4. 5 BELT. NEUVILLE 1:09:47.4 +7.9 +38.9
5. 3 GBRE. EVANS 1:10:01.7 +14.3 +53.2
6. 11 FINJ. HÄNNINEN 1:10:24.7 +23.0 +1:16.2
7. 8 IRLC. BREEN 1:10:34.7 +10.0 +1:26.2
8. 10 FINJ. LATVALA 1:11:04.8 +30.1 +1:56.3
9. 4 NZLH. PADDON 1:11:39.8 +35.0 +2:31.3
10. 34 CZEJ. KOPECKY 1:12:49.0 +1:09.2 +3:40.5
11. 31 SWEP. TIDEMAND 1:12:57.4 +8.4 +3:48.9
12. 33 FRAE. CAMILLI 1:13:10.3 +12.9 +4:01.8
13. 32 FINT. SUNINEN 1:13:18.6 +8.3 +4:10.1
14. 42 FRAP. LOUBET 1:13:53.9 +35.3 +4:45.4
15. 41 DEUM. GRIEBEL 1:13:54.8 +0.9 +4:46.3
16. 14 DEUA. KREMER 1:13:55.8 +1.0 +4:47.3
17. 40 GBRG. GREENSMITH 1:14:00.5 +4.7 +4:52.0
18. 39 FRAQ. GILBERT 1:14:35.7 +35.2 +5:27.2
19. 37 ITAS. TEMPESTINI 1:14:36.0 +0.3 +5:27.5
20. 71 DEUF. KREIM 1:14:51.1 +15.1 +5:42.6
21. 43 POLL. PIENIAZEK 1:15:39.1 +48.0 +6:30.6
22. 36 MEXB. GUERRA 1:15:44.3 +5.2 +6:35.8
23. 47 NLDB. TEN BRINKE 1:16:24.4 +40.1 +7:15.9
24. 72 KORC. LIM 1:17:45.2 +1:20.8 +8:36.7
25. 49 NLDE. SCHILT 1:18:22.1 +36.9 +9:13.6
26. 44 SWEE. BERGKVIST 1:18:22.3 +0.2 +9:13.8
27. 23 GRCJ. SERDERIDIS 1:18:25.9 +3.6 +9:17.4
28. 22 FRAJ. RAOUX 1:18:34.8 +8.9 +9:26.3
29. 76 FINJ. HUTTUNEN 1:20:08.5 +1:33.7 +11:00.0
30. 7 GBRK. MEEKE 1:20:20.8 +12.3 +11:12.3
31. 75 DEUH. GASSNER 1:20:45.8 +25.0 +11:37.3
32. 64 FRAN. CIAMIN 1:21:02.6 +16.8 +11:54.1
33. 65 FRAT. FOLB 1:21:25.8 +23.2 +12:17.3
34. 77 NLDT. VAN DEER MAREL    1:21:37.9 +12.1 +12:29.4
35. 78 DEUH. GASSNER JR. 1:21:56.3 +18.4 +12:47.8
36. 73 BELA. FUMAL 1:22:18.3 +22.0 +13:09.8
37. 80 IRLE. BOLAND 1:22:28.3 +10.0 +13:19.8
38. 66 DEUJ. TANNERT 1:22:34.1 +5.8 +13:25.6
39. 12 FINE. LAPPI 1:23:41.9 +1:07.8 +14:33.4
40. 45 FRAY. BONATO 1:23:51.9 +10.0 +14:43.4
41. 88 DEUU. GROPP 1:27:04.4 +3:12.5 +17:55.9
42. 86 FINT. LARIO 1:27:06.7 +2.3 +17:58.2
43. 62 ITAE. BRAZZOLI 1:29:17.5 +2:10.8 +20:09.0
44. 83 DEUM. DR. KLEIN 1:29:43.6 +26.1 +20:35.1
45. 95 DEUJ. HOHLHEIMER 1:30:54.5 +1:10.9 +21:46.0
46. 93 DEUJ. WECKER 1:31:06.4 +11.9 +21:57.9
47. 81 BELA. MOLLE 1:31:07.1 +0.7 +21:58.6
48. 61 FRAR. ASTIER 1:31:38.7 +31.6 +22:30.2
49. 74 CZEP. RUJBR 1:31:55.3 +16.6 +22:46.8
50. 87 FRAY. WENDLING 1:33:21.6 +1:26.3 +24:13.1
51. 91 DEUF. LAUER 1:33:52.5 +30.9 +24:44.0
52. 48 GBRJ. ARMSTRONG 1:34:38.0 +45.5 +25:29.5
53. 63 ESPN. SOLANS 1:35:35.3 +57.3 +26:26.8
54. 79 NLDH. VOSSEN 1:40:44.8 +5:09.5 +31:36.3
55. 94 DEUW. EHLHARDT 1:42:53.3 +2:08.5 +33:44.8
56. 6 ESPD. SORDO 1:44:03.1 +1:09.8 +34:54.6
57. 90 ITAT. MOLINARO 1:45:39.1 +1:36.0 +36:30.6
58. 38 FRAY. ROSSEL 1:51:38.6 +5:59.5 +42:30.1
59. 96 DEUC. BÄCHLE 1:53:10.9 +1:32.3 +44:02.4
60. 89 GBRT. WILLIAMS 2:01:56.9 +8:46.0 +52:48.4

 


ADAC / RB

Rallye Deutschland: News & Ergebnisse | Bildergalerie


Die Mobile-App von Speed-Magazin.de